George — WDE8076 — position and weather

sailwx.info

Track history (hours):
 
Tides and Currents Weather Stations Pressure Air Temp Water Temp Dewpoint Dewpoint Depression Visibility Wind Speed Wind Dir Waves Ship Positions

George

Owner: Harbor Docking & Towing Co LLC, Houston, TX. More information available from US FCC via Universal Licensing System and Coast Guard Vessel Documentation Center.

Last reported at 2018-Feb-23 02:30 UTC. Time now 2018-Feb-23 02:41 UTC.
Position N 30°06' W 093°20'.

Length 33 m.

Type: Tug. MMSI: 367401290.

Date/timePositionNaut miles runAvg speedWind from/ knotsBaromVisibWave heightAir tempDewpointWater temp
2018-Feb-23 02:30N 30°06' W 093°20'0 0.0
2018-Feb-23 02:00N 30°06' W 093°20'0 0.0
2018-Feb-23 01:30N 30°06' W 093°20'0 0.0
2018-Feb-23 00:58N 30°06' W 093°20'0 0.0
2018-Feb-23 00:30N 30°06' W 093°20'0 0.0
2018-Feb-23 00:00N 30°06' W 093°20'0 0.0
2018-Feb-22 23:28N 30°06' W 093°20'0 0.0
2018-Feb-22 23:00N 30°06' W 093°20'0 0.0
2018-Feb-22 22:28N 30°06' W 093°20'0 0.0
2018-Feb-22 21:13N 30°06' W 093°20'5 0.4
2018-Feb-22 06:40N 30°11' W 093°19'0 0.0
2018-Feb-22 06:26N 30°11' W 093°19'0 0.0
2018-Feb-22 05:24N 30°11' W 093°19'0 0.0
2018-Feb-22 04:23N 30°11' W 093°19'0 0.0
2018-Feb-22 03:37N 30°11' W 093°19'0 0.0
2018-Feb-22 00:30N 30°11' W 093°19'4 0.9
2018-Feb-21 20:05N 30°13' W 093°15'0 0.0
2018-Feb-21 19:23N 30°13' W 093°15'0 0.0
2018-Feb-21 19:00N 30°13' W 093°15'0 0.0
2018-Feb-21 18:28N 30°13' W 093°15'0 0.0
2018-Feb-21 18:00N 30°13' W 093°15'0 0.0
2018-Feb-21 17:30N 30°13' W 093°15'0 0.0
2018-Feb-21 17:00N 30°13' W 093°15'0 0.0
2018-Feb-21 16:30N 30°13' W 093°15'1 2.6
2018-Feb-21 16:00N 30°12' W 093°17'4 8.9
2018-Feb-21 15:30N 30°09' W 093°20'2 4.4
2018-Feb-21 15:00N 30°11' W 093°19'1 1.9
2018-Feb-21 14:30N 30°10' W 093°19'1 1.8
2018-Feb-21 14:00N 30°09' W 093°20'2 4.2
2018-Feb-21 13:30N 30°11' W 093°18'3 6.5
2018-Feb-21 13:00N 30°13' W 093°15'0 0.0
2018-Feb-21 12:30N 30°13' W 093°15'0 0.0
2018-Feb-21 12:00N 30°13' W 093°15'0 0.0
2018-Feb-21 11:30N 30°13' W 093°15'0 0.0
2018-Feb-21 11:00N 30°13' W 093°15'0 0.0
2018-Feb-21 10:30N 30°13' W 093°15'0 0.0
2018-Feb-21 10:00N 30°13' W 093°15'0 0.0
2018-Feb-21 09:30N 30°13' W 093°15'0 0.0
2018-Feb-21 09:00N 30°13' W 093°15'0 0.0
2018-Feb-21 08:30N 30°13' W 093°15'0 0.0
2018-Feb-21 08:00N 30°13' W 093°15'0 0.0
2018-Feb-21 07:30N 30°13' W 093°15'0 0.0
2018-Feb-21 07:00N 30°13' W 093°15'0 0.0
2018-Feb-21 06:30N 30°13' W 093°15'0 0.0
2018-Feb-21 06:00N 30°13' W 093°15'0 0.0
2018-Feb-21 05:30N 30°13' W 093°15'0 0.0
2018-Feb-21 05:00N 30°13' W 093°15'0 0.0
2018-Feb-21 04:29N 30°13' W 093°15'0 0.0
2018-Feb-21 04:00N 30°13' W 093°15'0 0.0
2018-Feb-21 03:30N 30°13' W 093°15'0 0.7
2018-Feb-21 03:00N 30°13' W 093°15'3 5.1
2018-Feb-21 02:30N 30°11' W 093°18'1 1.2
2018-Feb-21 02:00N 30°11' W 093°19'2 3.4
2018-Feb-21 01:30N 30°10' W 093°19'2 3.6
2018-Feb-21 01:00N 30°08' W 093°20'2 5.0
2018-Feb-21 00:30N 30°05' W 093°19'3 5.7
2018-Feb-21 00:00N 30°02' W 093°20'1 2.5
2018-Feb-20 23:30N 30°04' W 093°20'3 6.6
2018-Feb-20 23:00N 30°07' W 093°20'4 8.7
2018-Feb-20 22:30N 30°11' W 093°18'3 6.2
2018-Feb-20 22:00N 30°13' W 093°15'0 0.0
2018-Feb-20 21:30N 30°13' W 093°15'0 0.0
2018-Feb-20 21:00N 30°13' W 093°15'0 0.0
2018-Feb-20 20:30N 30°13' W 093°15'0 0.0
2018-Feb-20 20:00N 30°13' W 093°15'0 0.0
2018-Feb-20 19:30N 30°13' W 093°15'0 0.0
2018-Feb-20 18:59N 30°13' W 093°15'0 0.0
2018-Feb-20 18:30N 30°13' W 093°15'0 0.0
2018-Feb-20 18:00N 30°13' W 093°15'0 0.0
2018-Feb-20 17:30N 30°13' W 093°15'0 0.0
2018-Feb-20 17:00N 30°13' W 093°15'0 0.0
2018-Feb-20 16:30N 30°13' W 093°15'0 0.0
2018-Feb-20 16:00N 30°13' W 093°15'0 0.0
2018-Feb-20 15:30N 30°13' W 093°15'0 0.0
2018-Feb-20 15:00N 30°13' W 093°15'0 0.0
2018-Feb-20 14:30N 30°13' W 093°15'0 0.3
2018-Feb-20 14:00N 30°13' W 093°16'4 7.0
2018-Feb-20 13:30N 30°11' W 093°19'0 0.0
2018-Feb-20 13:00N 30°11' W 093°19'0 0.0
2018-Feb-20 12:30N 30°11' W 093°19'0 0.0
2018-Feb-20 12:00N 30°11' W 093°19'0 0.0
2018-Feb-20 11:30N 30°11' W 093°19'0 0.0
2018-Feb-20 11:00N 30°11' W 093°19'0 0.0
2018-Feb-20 10:30N 30°11' W 093°19'0 0.0
2018-Feb-20 10:00N 30°11' W 093°19'0 0.0
2018-Feb-20 09:30N 30°11' W 093°19'0 0.0
2018-Feb-20 09:00N 30°11' W 093°19'0 0.0
2018-Feb-20 08:30N 30°11' W 093°19'0 0.0
2018-Feb-20 07:45N 30°11' W 093°19'0 0.0
2018-Feb-20 07:30N 30°11' W 093°19'0 0.0
2018-Feb-20 07:00N 30°11' W 093°19'0 0.0
2018-Feb-20 06:30N 30°11' W 093°19'0 0.0
2018-Feb-20 06:00N 30°11' W 093°19'0 0.0
2018-Feb-20 05:30N 30°11' W 093°19'0 0.0
2018-Feb-20 04:59N 30°11' W 093°19'0 0.0
2018-Feb-20 04:30N 30°11' W 093°19'0 0.0
2018-Feb-20 04:00N 30°11' W 093°19'0 0.0
2018-Feb-20 03:30N 30°11' W 093°19'0 0.0
2018-Feb-20 03:00N 30°11' W 093°19'0 0.0
2018-Feb-20 02:30N 30°11' W 093°19'1 3.0
2018-Feb-20 02:00N 30°09' W 093°20'0 0.1
2018-Feb-20 01:30N 30°09' W 093°20'2 3.4
2018-Feb-20 01:00N 30°08' W 093°20'3 5.2
2018-Feb-20 00:30N 30°05' W 093°20'2 3.8
2018-Feb-20 00:00N 30°03' W 093°20'1 2.2
2018-Feb-19 23:30N 30°04' W 093°20'1 2.5
2018-Feb-19 22:59N 30°06' W 093°20'0 0.0
2018-Feb-19 22:29N 30°06' W 093°20'0 0.0
2018-Feb-19 22:00N 30°06' W 093°20'0 0.0
2018-Feb-19 21:30N 30°06' W 093°20'0 0.0
2018-Feb-19 21:00N 30°06' W 093°20'2 4.5
2018-Feb-19 20:30N 30°06' W 093°17'2 4.2
2018-Feb-19 20:00N 30°06' W 093°20'5 9.1
2018-Feb-19 19:30N 30°11' W 093°19'4 7.5
2018-Feb-19 19:00N 30°13' W 093°15'0 0.0
2018-Feb-19 18:30N 30°13' W 093°15'0 0.0
2018-Feb-19 18:00N 30°13' W 093°15'0 0.0
2018-Feb-19 17:30N 30°13' W 093°15'0 0.0
2018-Feb-19 17:00N 30°13' W 093°15'0 0.0
2018-Feb-19 16:30N 30°13' W 093°15'0 0.0
2018-Feb-19 15:58N 30°13' W 093°15'0 0.0
2018-Feb-19 15:30N 30°13' W 093°15'0 0.0
2018-Feb-19 15:00N 30°13' W 093°15'0 0.0
2018-Feb-19 14:26N 30°13' W 093°15'0 0.0
2018-Feb-19 13:55N 30°13' W 093°15'0 0.0
2018-Feb-19 13:29N 30°13' W 093°15'0 0.0
2018-Feb-19 13:00N 30°13' W 093°15'0 0.0
2018-Feb-19 12:30N 30°13' W 093°15'0 0.0
2018-Feb-19 12:00N 30°13' W 093°15'0 0.0
2018-Feb-19 11:30N 30°13' W 093°15'0 0.0
2018-Feb-19 11:00N 30°13' W 093°15'0 0.0
2018-Feb-19 10:30N 30°13' W 093°15'0 0.0
2018-Feb-19 10:00N 30°13' W 093°15'0 0.0
2018-Feb-19 09:28N 30°13' W 093°15'0 0.0
2018-Feb-19 09:00N 30°13' W 093°15'0 0.0
2018-Feb-19 08:29N 30°13' W 093°15'0 0.0
2018-Feb-19 08:00N 30°13' W 093°15'0 0.0
2018-Feb-19 07:29N 30°13' W 093°15'0 0.0
2018-Feb-19 07:00N 30°13' W 093°15'0 0.0
2018-Feb-19 06:30N 30°13' W 093°15'0 0.0
2018-Feb-19 06:00N 30°13' W 093°15'0 0.0
2018-Feb-19 05:30N 30°13' W 093°15'0 0.0
2018-Feb-19 05:00N 30°13' W 093°15'0 0.0
2018-Feb-19 04:30N 30°13' W 093°15'0 0.0
2018-Feb-19 03:57N 30°13' W 093°15'0 0.0
2018-Feb-19 03:30N 30°13' W 093°15'0 0.0
2018-Feb-19 03:00N 30°13' W 093°15'0 0.0
2018-Feb-19 02:25N 30°13' W 093°15'0 0.0
2018-Feb-19 01:56N 30°13' W 093°15'0 0.0
2018-Feb-19 01:30N 30°13' W 093°15'0 0.0
2018-Feb-19 00:58N 30°13' W 093°15'0 0.0
2018-Feb-19 00:29N 30°13' W 093°15'0 0.0
2018-Feb-19 00:00N 30°13' W 093°15'1 2.9
2018-Feb-18 23:30N 30°12' W 093°17'4 8.1
2018-Feb-18 23:00N 30°09' W 093°20'1 1.0
2018-Feb-18 22:30N 30°09' W 093°20'0 0.1
2018-Feb-18 22:00N 30°09' W 093°20'1 2.2
2018-Feb-18 21:30N 30°10' W 093°19'2 3.4
2018-Feb-18 21:00N 30°12' W 093°18'4 2.9
2018-Feb-18 19:36N 30°08' W 093°20'0 1.2
2018-Feb-18 19:30N 30°08' W 093°20'2 3.3
2018-Feb-18 19:00N 30°10' W 093°19'1 2.1
2018-Feb-18 18:30N 30°11' W 093°19'0 0.0
2018-Feb-18 18:00N 30°11' W 093°19'0 0.0
2018-Feb-18 17:30N 30°11' W 093°19'0 0.0
2018-Feb-18 17:00N 30°11' W 093°19'0 0.0
2018-Feb-18 16:30N 30°11' W 093°19'0 0.0
2018-Feb-18 16:00N 30°11' W 093°19'0 0.0
2018-Feb-18 15:30N 30°11' W 093°19'0 0.0
2018-Feb-18 15:00N 30°11' W 093°19'0 0.0
2018-Feb-18 14:30N 30°11' W 093°19'0 0.0
2018-Feb-18 14:00N 30°11' W 093°19'0 0.0
2018-Feb-18 13:30N 30°11' W 093°19'0 0.0
2018-Feb-18 13:00N 30°11' W 093°19'0 0.0
2018-Feb-18 12:30N 30°11' W 093°19'0 0.0
2018-Feb-18 12:00N 30°11' W 093°19'0 0.0
2018-Feb-18 11:30N 30°11' W 093°19'0 0.0
2018-Feb-18 11:00N 30°11' W 093°19'0 0.0
2018-Feb-18 10:30N 30°11' W 093°19'0 0.0
2018-Feb-18 10:00N 30°11' W 093°19'0 0.0
2018-Feb-18 09:30N 30°11' W 093°19'0 0.0
2018-Feb-18 09:00N 30°11' W 093°19'0 0.0
2018-Feb-18 08:30N 30°11' W 093°19'0 0.0
2018-Feb-18 08:00N 30°11' W 093°19'0 0.0
2018-Feb-18 07:29N 30°11' W 093°19'0 0.0
2018-Feb-18 07:00N 30°11' W 093°19'0 0.0
2018-Feb-18 06:30N 30°11' W 093°19'0 0.0
2018-Feb-18 06:00N 30°11' W 093°19'0 0.0
2018-Feb-18 05:30N 30°11' W 093°19'0 0.0
2018-Feb-18 04:59N 30°11' W 093°19'0 0.0
2018-Feb-18 04:29N 30°11' W 093°19'0 0.0
2018-Feb-18 04:00N 30°11' W 093°19'0 0.0
2018-Feb-18 03:30N 30°11' W 093°19'0 0.0
2018-Feb-18 03:00N 30°11' W 093°19'0 0.0
2018-Feb-18 02:30N 30°11' W 093°19'1 1.4
2018-Feb-18 02:00N 30°10' W 093°19'1 1.5
2018-Feb-18 01:30N 30°09' W 093°20'0 0.0
2018-Feb-18 01:00N 30°09' W 093°20'1 1.5
2018-Feb-18 00:30N 30°09' W 093°20'3 5.6
2018-Feb-18 00:00N 30°06' W 093°20'3 5.7
2018-Feb-17 23:30N 30°03' W 093°20'4 8.6
2018-Feb-17 23:00N 30°07' W 093°20'4 8.0
2018-Feb-17 22:30N 30°11' W 093°18'3 6.2
2018-Feb-17 21:59N 30°13' W 093°15'0 0.6
2018-Feb-17 21:30N 30°13' W 093°16'3 5.7
2018-Feb-17 21:00N 30°11' W 093°18'2 4.1
2018-Feb-17 20:30N 30°10' W 093°20'1 2.7
2018-Feb-17 20:00N 30°11' W 093°19'0 0.0
2018-Feb-17 19:30N 30°11' W 093°19'0 0.0
2018-Feb-17 19:00N 30°11' W 093°19'0 0.0
2018-Feb-17 18:30N 30°11' W 093°19'0 0.0
2018-Feb-17 18:00N 30°11' W 093°19'0 0.0
2018-Feb-17 17:30N 30°11' W 093°19'0 0.0
2018-Feb-17 17:00N 30°11' W 093°19'0 0.0
2018-Feb-17 16:30N 30°11' W 093°19'0 0.0
2018-Feb-17 16:00N 30°11' W 093°19'0 0.0
2018-Feb-17 15:30N 30°11' W 093°19'0 0.0
2018-Feb-17 15:00N 30°11' W 093°19'0 0.0
2018-Feb-17 14:29N 30°11' W 093°19'0 0.0
2018-Feb-17 14:00N 30°11' W 093°19'0 0.0
2018-Feb-17 13:30N 30°11' W 093°19'0 0.0
2018-Feb-17 13:00N 30°11' W 093°19'0 0.0
2018-Feb-17 12:30N 30°11' W 093°19'0 0.0
2018-Feb-17 12:00N 30°11' W 093°19'0 0.0
2018-Feb-17 11:30N 30°11' W 093°19'0 0.0
2018-Feb-17 11:00N 30°11' W 093°19'0 0.0
2018-Feb-17 10:30N 30°11' W 093°19'0 0.0
2018-Feb-17 10:00N 30°11' W 093°19'0 0.0
2018-Feb-17 09:30N 30°11' W 093°19'0 0.0
2018-Feb-17 09:00N 30°11' W 093°19'0 0.0
2018-Feb-17 08:30N 30°11' W 093°19'0 0.0
2018-Feb-17 08:00N 30°11' W 093°19'0 0.0
2018-Feb-17 07:30N 30°11' W 093°19'0 0.0
2018-Feb-17 07:00N 30°11' W 093°19'0 0.0
2018-Feb-17 06:30N 30°11' W 093°19'0 0.0
2018-Feb-17 06:00N 30°11' W 093°19'0 0.0
2018-Feb-17 05:30N 30°11' W 093°19'0 0.0
2018-Feb-17 05:00N 30°11' W 093°19'0 0.0
2018-Feb-17 04:30N 30°11' W 093°19'0 0.0
2018-Feb-17 04:00N 30°11' W 093°19'0 0.0
2018-Feb-17 03:30N 30°11' W 093°19'0 0.0
2018-Feb-17 03:00N 30°11' W 093°19'0 0.0
2018-Feb-17 02:30N 30°11' W 093°19'0 0.0
2018-Feb-17 02:00N 30°11' W 093°19'0 0.0
2018-Feb-17 01:28N 30°11' W 093°19'0 0.0
2018-Feb-17 01:00N 30°11' W 093°19'0 0.0
2018-Feb-17 00:30N 30°11' W 093°19'0 0.0
2018-Feb-17 00:00N 30°11' W 093°19'0 0.0
2018-Feb-16 23:23N 30°11' W 093°19'0 0.0
2018-Feb-16 23:00N 30°11' W 093°19'0 0.0
2018-Feb-16 22:30N 30°11' W 093°19'0 0.0
2018-Feb-16 22:00N 30°11' W 093°19'0 0.0
2018-Feb-16 21:30N 30°11' W 093°19'2 3.9
2018-Feb-16 21:00N 30°09' W 093°20'2 4.2
2018-Feb-16 20:31N 30°11' W 093°19'1 1.9
2018-Feb-16 20:00N 30°11' W 093°18'0 0.0
2018-Feb-16 19:30N 30°11' W 093°18'0 0.2
2018-Feb-16 19:01N 30°12' W 093°18'1 0.9
2018-Feb-16 17:28N 30°11' W 093°19'1 3.3
2018-Feb-16 17:00N 30°09' W 093°20'0 0.2
2018-Feb-16 16:30N 30°09' W 093°20'2 4.1
2018-Feb-16 16:00N 30°11' W 093°18'3 6.6
2018-Feb-16 15:30N 30°13' W 093°15'0 0.0
2018-Feb-16 15:00N 30°13' W 093°15'0 0.0
2018-Feb-16 14:30N 30°13' W 093°15'0 0.0
2018-Feb-16 14:00N 30°13' W 093°15'0 0.0
2018-Feb-16 13:30N 30°13' W 093°15'0 0.0
2018-Feb-16 12:59N 30°13' W 093°15'0 0.0
2018-Feb-16 12:30N 30°13' W 093°15'0 0.0
2018-Feb-16 12:00N 30°13' W 093°15'0 0.0
2018-Feb-16 11:30N 30°13' W 093°15'0 0.0
2018-Feb-16 11:00N 30°13' W 093°15'0 0.0
2018-Feb-16 10:30N 30°13' W 093°15'0 0.0
2018-Feb-16 10:00N 30°13' W 093°15'0 0.0
2018-Feb-16 09:30N 30°13' W 093°15'0 0.0
2018-Feb-16 09:00N 30°13' W 093°15'0 0.0
2018-Feb-16 08:30N 30°13' W 093°15'0 0.0
2018-Feb-16 07:59N 30°13' W 093°15'0 0.0
2018-Feb-16 07:30N 30°13' W 093°15'0 0.0
2018-Feb-16 07:00N 30°13' W 093°15'0 0.0
2018-Feb-16 06:30N 30°13' W 093°15'0 0.0
2018-Feb-16 06:00N 30°13' W 093°15'0 0.0
2018-Feb-16 05:30N 30°13' W 093°15'0 0.0
2018-Feb-16 05:00N 30°13' W 093°15'0 0.0
2018-Feb-16 04:30N 30°13' W 093°15'0 0.0
2018-Feb-16 04:00N 30°13' W 093°15'0 0.0
2018-Feb-16 03:30N 30°13' W 093°15'0 0.0
2018-Feb-16 03:00N 30°13' W 093°15'0 0.0
2018-Feb-16 02:30N 30°13' W 093°15'0 0.0
2018-Feb-16 02:00N 30°13' W 093°15'0 0.0
2018-Feb-16 01:30N 30°13' W 093°15'0 0.0
2018-Feb-16 01:00N 30°13' W 093°15'0 0.0
2018-Feb-16 00:29N 30°13' W 093°15'0 0.0
2018-Feb-15 23:57N 30°13' W 093°15'0 0.0
2018-Feb-15 23:30N 30°13' W 093°15'0 0.0
2018-Feb-15 23:00N 30°13' W 093°15'0 0.0
2018-Feb-15 22:30N 30°13' W 093°15'0 0.0
2018-Feb-15 22:00N 30°13' W 093°15'0 0.0
2018-Feb-15 21:30N 30°13' W 093°15'0 0.0
2018-Feb-15 21:00N 30°13' W 093°15'0 0.0
2018-Feb-15 20:30N 30°13' W 093°15'0 0.0
2018-Feb-15 20:00N 30°13' W 093°15'0 0.0
2018-Feb-15 19:30N 30°13' W 093°15'0 0.0
2018-Feb-15 19:00N 30°13' W 093°15'0 0.0
2018-Feb-15 18:30N 30°13' W 093°15'0 0.0
2018-Feb-15 18:00N 30°13' W 093°15'0 0.0
2018-Feb-15 17:30N 30°13' W 093°15'0 0.0
2018-Feb-15 17:00N 30°13' W 093°15'0 0.0
2018-Feb-15 16:30N 30°13' W 093°15'0 0.0
2018-Feb-15 16:00N 30°13' W 093°15'0 0.0
2018-Feb-15 15:30N 30°13' W 093°15'0 0.0
2018-Feb-15 15:00N 30°13' W 093°15'0 0.0
2018-Feb-15 14:30N 30°13' W 093°15'0 0.0
2018-Feb-15 14:00N 30°13' W 093°15'0 0.0
2018-Feb-15 13:30N 30°13' W 093°15'0 0.0
2018-Feb-15 13:00N 30°13' W 093°15'0 0.0
2018-Feb-15 12:30N 30°13' W 093°15'0 0.0
2018-Feb-15 12:00N 30°13' W 093°15'0 0.0
2018-Feb-15 11:30N 30°13' W 093°15'0 0.0
2018-Feb-15 11:00N 30°13' W 093°15'0 0.0
2018-Feb-15 10:30N 30°13' W 093°15'0 0.0
2018-Feb-15 10:00N 30°13' W 093°15'0 0.0
2018-Feb-15 09:30N 30°13' W 093°15'0 0.0
2018-Feb-15 09:00N 30°13' W 093°15'0 0.0
2018-Feb-15 08:30N 30°13' W 093°15'0 0.0
2018-Feb-15 08:00N 30°13' W 093°15'0 0.0
2018-Feb-15 07:30N 30°13' W 093°15'0 0.0
2018-Feb-15 07:00N 30°13' W 093°15'0 0.0
2018-Feb-15 06:30N 30°13' W 093°15'0 0.0
2018-Feb-15 06:00N 30°13' W 093°15'0 0.0
2018-Feb-15 05:29N 30°13' W 093°15'0 0.0
2018-Feb-15 05:00N 30°13' W 093°15'0 0.0
2018-Feb-15 04:30N 30°13' W 093°15'0 0.0
2018-Feb-15 03:59N 30°13' W 093°15'0 0.0
2018-Feb-15 03:31N 30°13' W 093°15'0 0.0
2018-Feb-15 03:00N 30°13' W 093°15'0 0.0
2018-Feb-15 02:22N 30°13' W 093°15'0 0.0
2018-Feb-15 02:00N 30°13' W 093°15'0 0.0
2018-Feb-15 01:30N 30°13' W 093°15'0 0.0
2018-Feb-15 01:00N 30°13' W 093°15'0 0.0
2018-Feb-15 00:30N 30°13' W 093°15'0 0.0
2018-Feb-15 00:00N 30°13' W 093°15'0 0.0
2018-Feb-14 23:30N 30°13' W 093°15'0 0.0
2018-Feb-14 23:00N 30°13' W 093°15'0 0.0
2018-Feb-14 22:30N 30°13' W 093°15'1 2.3
2018-Feb-14 22:00N 30°14' W 093°15'0 0.0
2018-Feb-14 21:30N 30°14' W 093°15'1 2.8
2018-Feb-14 21:00N 30°12' W 093°16'3 6.4
2018-Feb-14 20:30N 30°11' W 093°19'2 3.0
2018-Feb-14 20:00N 30°09' W 093°20'0 0.0
2018-Feb-14 19:30N 30°09' W 093°20'4 8.7
2018-Feb-14 19:00N 30°12' W 093°16'1 1.7
2018-Feb-14 18:30N 30°13' W 093°15'0 0.0
2018-Feb-14 18:00N 30°13' W 093°15'0 0.0
2018-Feb-14 17:30N 30°13' W 093°15'0 0.0
2018-Feb-14 17:00N 30°13' W 093°15'0 0.0
2018-Feb-14 16:30N 30°13' W 093°15'0 0.0
2018-Feb-14 16:00N 30°13' W 093°15'0 0.0
2018-Feb-14 15:30N 30°13' W 093°15'0 0.0
2018-Feb-14 15:00N 30°13' W 093°15'0 0.0
2018-Feb-14 14:30N 30°13' W 093°15'0 0.0
2018-Feb-14 14:00N 30°13' W 093°15'0 0.0
2018-Feb-14 13:30N 30°13' W 093°15'0 0.0
2018-Feb-14 13:00N 30°13' W 093°15'0 0.0
2018-Feb-14 12:30N 30°13' W 093°15'0 0.0
2018-Feb-14 12:00N 30°13' W 093°15'0 0.0
2018-Feb-14 11:30N 30°13' W 093°15'0 0.0
2018-Feb-14 11:00N 30°13' W 093°15'0 0.0
2018-Feb-14 10:31N 30°13' W 093°15'0 0.0
2018-Feb-14 10:00N 30°13' W 093°15'0 0.0
2018-Feb-14 09:30N 30°13' W 093°15'0 0.0
2018-Feb-14 09:00N 30°13' W 093°15'0 0.0
2018-Feb-14 08:30N 30°13' W 093°15'0 0.0
2018-Feb-14 08:00N 30°13' W 093°15'0 0.0
2018-Feb-14 07:30N 30°13' W 093°15'0 0.0
2018-Feb-14 07:00N 30°13' W 093°15'0 0.0
2018-Feb-14 06:30N 30°13' W 093°15'0 0.0
2018-Feb-14 06:00N 30°13' W 093°15'0 0.0
2018-Feb-14 05:30N 30°13' W 093°15'0 0.0
2018-Feb-14 05:00N 30°13' W 093°15'0 0.0
2018-Feb-14 04:30N 30°13' W 093°15'0 0.0
2018-Feb-14 04:00N 30°13' W 093°15'0 0.0
2018-Feb-14 03:29N 30°13' W 093°15'0 0.0
2018-Feb-14 03:00N 30°13' W 093°15'0 0.0
2018-Feb-14 02:30N 30°13' W 093°15'0 0.0
2018-Feb-14 02:00N 30°13' W 093°15'0 0.0
2018-Feb-14 01:30N 30°13' W 093°15'0 0.0
2018-Feb-14 01:01N 30°13' W 093°15'0 0.0
2018-Feb-14 00:30N 30°13' W 093°15'0 0.0
2018-Feb-14 00:00N 30°13' W 093°15'0 0.0
2018-Feb-13 23:30N 30°13' W 093°15'0 0.0
2018-Feb-13 23:00N 30°13' W 093°15'0 0.0
2018-Feb-13 22:30N 30°13' W 093°15'1 2.8
2018-Feb-13 22:00N 30°12' W 093°17'2 5.0
2018-Feb-13 21:30N 30°11' W 093°19'0 0.0
2018-Feb-13 21:00N 30°11' W 093°19'0 0.0
2018-Feb-13 20:30N 30°11' W 093°19'0 0.0
2018-Feb-13 20:00N 30°11' W 093°19'0 0.0
2018-Feb-13 19:30N 30°11' W 093°19'0 0.0
2018-Feb-13 19:00N 30°11' W 093°19'0 0.0
2018-Feb-13 18:30N 30°11' W 093°19'0 0.0
2018-Feb-13 18:00N 30°11' W 093°19'0 0.0
2018-Feb-13 17:30N 30°11' W 093°19'0 0.0
2018-Feb-13 17:00N 30°11' W 093°19'0 0.0
2018-Feb-13 16:30N 30°11' W 093°19'0 0.0
2018-Feb-13 15:59N 30°11' W 093°19'0 0.0
2018-Feb-13 15:30N 30°11' W 093°19'0 0.0
2018-Feb-13 15:00N 30°11' W 093°19'0 0.0
2018-Feb-13 14:30N 30°11' W 093°19'0 0.0
2018-Feb-13 14:00N 30°11' W 093°19'0 0.0
2018-Feb-13 13:30N 30°11' W 093°19'0 0.0
2018-Feb-13 13:00N 30°11' W 093°19'0 0.0
2018-Feb-13 12:29N 30°11' W 093°19'0 0.0
2018-Feb-13 12:00N 30°11' W 093°19'0 0.0
2018-Feb-13 11:27N 30°11' W 093°19'0 0.0
2018-Feb-13 11:00N 30°11' W 093°19'0 0.0
2018-Feb-13 10:30N 30°11' W 093°19'0 0.0
2018-Feb-13 09:58N 30°11' W 093°19'0 0.0
2018-Feb-13 09:30N 30°11' W 093°19'0 0.0
2018-Feb-13 08:59N 30°11' W 093°19'0 0.0
2018-Feb-13 08:30N 30°11' W 093°19'0 0.0
2018-Feb-13 07:59N 30°11' W 093°19'0 0.0
2018-Feb-13 07:28N 30°11' W 093°19'0 0.0
2018-Feb-13 07:00N 30°11' W 093°19'0 0.0
2018-Feb-13 06:31N 30°11' W 093°19'0 0.0
2018-Feb-13 06:00N 30°11' W 093°19'0 0.0
2018-Feb-13 05:26N 30°11' W 093°19'0 0.0
2018-Feb-13 05:00N 30°11' W 093°19'0 0.0
2018-Feb-13 04:30N 30°11' W 093°19'0 0.0
2018-Feb-13 04:00N 30°11' W 093°19'0 0.0
2018-Feb-13 03:30N 30°11' W 093°19'0 0.0
2018-Feb-13 03:00N 30°11' W 093°19'0 0.0
2018-Feb-13 02:30N 30°11' W 093°19'  
Track history (hours):
 
Tides and Currents Weather Stations Pressure Air Temp Water Temp Dewpoint Dewpoint Depression Visibility Wind Speed Wind Dir Waves Ship Positions

George

Owner: Harbor Docking & Towing Co LLC, Houston, TX. More information available from US FCC via Universal Licensing System and Coast Guard Vessel Documentation Center.

Last reported at 2018-Feb-23 02:30 UTC. Time now 2018-Feb-23 02:41 UTC.
Position N 30°06' W 093°20'.

Length 33 m.

Type: Tug. MMSI: 367401290.

Date/timePositionNaut miles runAvg speedWind from/ knotsBaromVisibWave heightAir tempDewpointWater temp
2018-Feb-23 02:30N 30°06' W 093°20'0 0.0
2018-Feb-23 02:00N 30°06' W 093°20'0 0.0
2018-Feb-23 01:30N 30°06' W 093°20'0 0.0
2018-Feb-23 00:58N 30°06' W 093°20'0 0.0
2018-Feb-23 00:30N 30°06' W 093°20'0 0.0
2018-Feb-23 00:00N 30°06' W 093°20'0 0.0
2018-Feb-22 23:28N 30°06' W 093°20'0 0.0
2018-Feb-22 23:00N 30°06' W 093°20'0 0.0
2018-Feb-22 22:28N 30°06' W 093°20'0 0.0
2018-Feb-22 21:13N 30°06' W 093°20'5 0.4
2018-Feb-22 06:40N 30°11' W 093°19'0 0.0
2018-Feb-22 06:26N 30°11' W 093°19'0 0.0
2018-Feb-22 05:24N 30°11' W 093°19'0 0.0
2018-Feb-22 04:23N 30°11' W 093°19'0 0.0
2018-Feb-22 03:37N 30°11' W 093°19'0 0.0
2018-Feb-22 00:30N 30°11' W 093°19'4 0.9
2018-Feb-21 20:05N 30°13' W 093°15'0 0.0
2018-Feb-21 19:23N 30°13' W 093°15'0 0.0
2018-Feb-21 19:00N 30°13' W 093°15'0 0.0
2018-Feb-21 18:28N 30°13' W 093°15'0 0.0
2018-Feb-21 18:00N 30°13' W 093°15'0 0.0
2018-Feb-21 17:30N 30°13' W 093°15'0 0.0
2018-Feb-21 17:00N 30°13' W 093°15'0 0.0
2018-Feb-21 16:30N 30°13' W 093°15'1 2.6
2018-Feb-21 16:00N 30°12' W 093°17'4 8.9
2018-Feb-21 15:30N 30°09' W 093°20'2 4.4
2018-Feb-21 15:00N 30°11' W 093°19'1 1.9
2018-Feb-21 14:30N 30°10' W 093°19'1 1.8
2018-Feb-21 14:00N 30°09' W 093°20'2 4.2
2018-Feb-21 13:30N 30°11' W 093°18'3 6.5
2018-Feb-21 13:00N 30°13' W 093°15'0 0.0
2018-Feb-21 12:30N 30°13' W 093°15'0 0.0
2018-Feb-21 12:00N 30°13' W 093°15'0 0.0
2018-Feb-21 11:30N 30°13' W 093°15'0 0.0
2018-Feb-21 11:00N 30°13' W 093°15'0 0.0
2018-Feb-21 10:30N 30°13' W 093°15'0 0.0
2018-Feb-21 10:00N 30°13' W 093°15'0 0.0
2018-Feb-21 09:30N 30°13' W 093°15'0 0.0
2018-Feb-21 09:00N 30°13' W 093°15'0 0.0
2018-Feb-21 08:30N 30°13' W 093°15'0 0.0
2018-Feb-21 08:00N 30°13' W 093°15'0 0.0
2018-Feb-21 07:30N 30°13' W 093°15'0 0.0
2018-Feb-21 07:00N 30°13' W 093°15'0 0.0
2018-Feb-21 06:30N 30°13' W 093°15'0 0.0
2018-Feb-21 06:00N 30°13' W 093°15'0 0.0
2018-Feb-21 05:30N 30°13' W 093°15'0 0.0
2018-Feb-21 05:00N 30°13' W 093°15'0 0.0
2018-Feb-21 04:29N 30°13' W 093°15'0 0.0
2018-Feb-21 04:00N 30°13' W 093°15'0 0.0
2018-Feb-21 03:30N 30°13' W 093°15'0 0.7
2018-Feb-21 03:00N 30°13' W 093°15'3 5.1
2018-Feb-21 02:30N 30°11' W 093°18'1 1.2
2018-Feb-21 02:00N 30°11' W 093°19'2 3.4
2018-Feb-21 01:30N 30°10' W 093°19'2 3.6
2018-Feb-21 01:00N 30°08' W 093°20'2 5.0
2018-Feb-21 00:30N 30°05' W 093°19'3 5.7
2018-Feb-21 00:00N 30°02' W 093°20'1 2.5
2018-Feb-20 23:30N 30°04' W 093°20'3 6.6
2018-Feb-20 23:00N 30°07' W 093°20'4 8.7
2018-Feb-20 22:30N 30°11' W 093°18'3 6.2
2018-Feb-20 22:00N 30°13' W 093°15'0 0.0
2018-Feb-20 21:30N 30°13' W 093°15'0 0.0
2018-Feb-20 21:00N 30°13' W 093°15'0 0.0
2018-Feb-20 20:30N 30°13' W 093°15'0 0.0
2018-Feb-20 20:00N 30°13' W 093°15'0 0.0
2018-Feb-20 19:30N 30°13' W 093°15'0 0.0
2018-Feb-20 18:59N 30°13' W 093°15'0 0.0
2018-Feb-20 18:30N 30°13' W 093°15'0 0.0
2018-Feb-20 18:00N 30°13' W 093°15'0 0.0
2018-Feb-20 17:30N 30°13' W 093°15'0 0.0
2018-Feb-20 17:00N 30°13' W 093°15'0 0.0
2018-Feb-20 16:30N 30°13' W 093°15'0 0.0
2018-Feb-20 16:00N 30°13' W 093°15'0 0.0
2018-Feb-20 15:30N 30°13' W 093°15'0 0.0
2018-Feb-20 15:00N 30°13' W 093°15'0 0.0
2018-Feb-20 14:30N 30°13' W 093°15'0 0.3
2018-Feb-20 14:00N 30°13' W 093°16'4 7.0
2018-Feb-20 13:30N 30°11' W 093°19'0 0.0
2018-Feb-20 13:00N 30°11' W 093°19'0 0.0
2018-Feb-20 12:30N 30°11' W 093°19'0 0.0
2018-Feb-20 12:00N 30°11' W 093°19'0 0.0
2018-Feb-20 11:30N 30°11' W 093°19'0 0.0
2018-Feb-20 11:00N 30°11' W 093°19'0 0.0
2018-Feb-20 10:30N 30°11' W 093°19'0 0.0
2018-Feb-20 10:00N 30°11' W 093°19'0 0.0
2018-Feb-20 09:30N 30°11' W 093°19'0 0.0
2018-Feb-20 09:00N 30°11' W 093°19'0 0.0
2018-Feb-20 08:30N 30°11' W 093°19'0 0.0
2018-Feb-20 07:45N 30°11' W 093°19'0 0.0
2018-Feb-20 07:30N 30°11' W 093°19'0 0.0
2018-Feb-20 07:00N 30°11' W 093°19'0 0.0
2018-Feb-20 06:30N 30°11' W 093°19'0 0.0
2018-Feb-20 06:00N 30°11' W 093°19'0 0.0
2018-Feb-20 05:30N 30°11' W 093°19'0 0.0
2018-Feb-20 04:59N 30°11' W 093°19'0 0.0
2018-Feb-20 04:30N 30°11' W 093°19'0 0.0
2018-Feb-20 04:00N 30°11' W 093°19'0 0.0
2018-Feb-20 03:30N 30°11' W 093°19'0 0.0
2018-Feb-20 03:00N 30°11' W 093°19'0 0.0
2018-Feb-20 02:30N 30°11' W 093°19'1 3.0
2018-Feb-20 02:00N 30°09' W 093°20'0 0.1
2018-Feb-20 01:30N 30°09' W 093°20'2 3.4
2018-Feb-20 01:00N 30°08' W 093°20'3 5.2
2018-Feb-20 00:30N 30°05' W 093°20'2 3.8
2018-Feb-20 00:00N 30°03' W 093°20'1 2.2
2018-Feb-19 23:30N 30°04' W 093°20'1 2.5
2018-Feb-19 22:59N 30°06' W 093°20'0 0.0
2018-Feb-19 22:29N 30°06' W 093°20'0 0.0
2018-Feb-19 22:00N 30°06' W 093°20'0 0.0
2018-Feb-19 21:30N 30°06' W 093°20'0 0.0
2018-Feb-19 21:00N 30°06' W 093°20'2 4.5
2018-Feb-19 20:30N 30°06' W 093°17'2 4.2
2018-Feb-19 20:00N 30°06' W 093°20'5 9.1
2018-Feb-19 19:30N 30°11' W 093°19'4 7.5
2018-Feb-19 19:00N 30°13' W 093°15'0 0.0
2018-Feb-19 18:30N 30°13' W 093°15'0 0.0
2018-Feb-19 18:00N 30°13' W 093°15'0 0.0
2018-Feb-19 17:30N 30°13' W 093°15'0 0.0
2018-Feb-19 17:00N 30°13' W 093°15'0 0.0
2018-Feb-19 16:30N 30°13' W 093°15'0 0.0
2018-Feb-19 15:58N 30°13' W 093°15'0 0.0
2018-Feb-19 15:30N 30°13' W 093°15'0 0.0
2018-Feb-19 15:00N 30°13' W 093°15'0 0.0
2018-Feb-19 14:26N 30°13' W 093°15'0 0.0
2018-Feb-19 13:55N 30°13' W 093°15'0 0.0
2018-Feb-19 13:29N 30°13' W 093°15'0 0.0
2018-Feb-19 13:00N 30°13' W 093°15'0 0.0
2018-Feb-19 12:30N 30°13' W 093°15'0 0.0
2018-Feb-19 12:00N 30°13' W 093°15'0 0.0
2018-Feb-19 11:30N 30°13' W 093°15'0 0.0
2018-Feb-19 11:00N 30°13' W 093°15'0 0.0
2018-Feb-19 10:30N 30°13' W 093°15'0 0.0
2018-Feb-19 10:00N 30°13' W 093°15'0 0.0
2018-Feb-19 09:28N 30°13' W 093°15'0 0.0
2018-Feb-19 09:00N 30°13' W 093°15'0 0.0
2018-Feb-19 08:29N 30°13' W 093°15'0 0.0
2018-Feb-19 08:00N 30°13' W 093°15'0 0.0
2018-Feb-19 07:29N 30°13' W 093°15'0 0.0
2018-Feb-19 07:00N 30°13' W 093°15'0 0.0
2018-Feb-19 06:30N 30°13' W 093°15'0 0.0
2018-Feb-19 06:00N 30°13' W 093°15'0 0.0
2018-Feb-19 05:30N 30°13' W 093°15'0 0.0
2018-Feb-19 05:00N 30°13' W 093°15'0 0.0
2018-Feb-19 04:30N 30°13' W 093°15'0 0.0
2018-Feb-19 03:57N 30°13' W 093°15'0 0.0
2018-Feb-19 03:30N 30°13' W 093°15'0 0.0
2018-Feb-19 03:00N 30°13' W 093°15'0 0.0
2018-Feb-19 02:25N 30°13' W 093°15'0 0.0
2018-Feb-19 01:56N 30°13' W 093°15'0 0.0
2018-Feb-19 01:30N 30°13' W 093°15'0 0.0
2018-Feb-19 00:58N 30°13' W 093°15'0 0.0
2018-Feb-19 00:29N 30°13' W 093°15'0 0.0
2018-Feb-19 00:00N 30°13' W 093°15'1 2.9
2018-Feb-18 23:30N 30°12' W 093°17'4 8.1
2018-Feb-18 23:00N 30°09' W 093°20'1 1.0
2018-Feb-18 22:30N 30°09' W 093°20'0 0.1
2018-Feb-18 22:00N 30°09' W 093°20'1 2.2
2018-Feb-18 21:30N 30°10' W 093°19'2 3.4
2018-Feb-18 21:00N 30°12' W 093°18'4 2.9
2018-Feb-18 19:36N 30°08' W 093°20'0 1.2
2018-Feb-18 19:30N 30°08' W 093°20'2 3.3
2018-Feb-18 19:00N 30°10' W 093°19'1 2.1
2018-Feb-18 18:30N 30°11' W 093°19'0 0.0
2018-Feb-18 18:00N 30°11' W 093°19'0 0.0
2018-Feb-18 17:30N 30°11' W 093°19'0 0.0
2018-Feb-18 17:00N 30°11' W 093°19'0 0.0
2018-Feb-18 16:30N 30°11' W 093°19'0 0.0
2018-Feb-18 16:00N 30°11' W 093°19'0 0.0
2018-Feb-18 15:30N 30°11' W 093°19'0 0.0
2018-Feb-18 15:00N 30°11' W 093°19'0 0.0
2018-Feb-18 14:30N 30°11' W 093°19'0 0.0
2018-Feb-18 14:00N 30°11' W 093°19'0 0.0
2018-Feb-18 13:30N 30°11' W 093°19'0 0.0
2018-Feb-18 13:00N 30°11' W 093°19'0 0.0
2018-Feb-18 12:30N 30°11' W 093°19'0 0.0
2018-Feb-18 12:00N 30°11' W 093°19'0 0.0
2018-Feb-18 11:30N 30°11' W 093°19'0 0.0
2018-Feb-18 11:00N 30°11' W 093°19'0 0.0
2018-Feb-18 10:30N 30°11' W 093°19'0 0.0
2018-Feb-18 10:00N 30°11' W 093°19'0 0.0
2018-Feb-18 09:30N 30°11' W 093°19'0 0.0
2018-Feb-18 09:00N 30°11' W 093°19'0 0.0
2018-Feb-18 08:30N 30°11' W 093°19'0 0.0
2018-Feb-18 08:00N 30°11' W 093°19'0 0.0
2018-Feb-18 07:29N 30°11' W 093°19'0 0.0
2018-Feb-18 07:00N 30°11' W 093°19'0 0.0
2018-Feb-18 06:30N 30°11' W 093°19'0 0.0
2018-Feb-18 06:00N 30°11' W 093°19'0 0.0
2018-Feb-18 05:30N 30°11' W 093°19'0 0.0
2018-Feb-18 04:59N 30°11' W 093°19'0 0.0
2018-Feb-18 04:29N 30°11' W 093°19'0 0.0
2018-Feb-18 04:00N 30°11' W 093°19'0 0.0
2018-Feb-18 03:30N 30°11' W 093°19'0 0.0
2018-Feb-18 03:00N 30°11' W 093°19'0 0.0
2018-Feb-18 02:30N 30°11' W 093°19'1 1.4
2018-Feb-18 02:00N 30°10' W 093°19'1 1.5
2018-Feb-18 01:30N 30°09' W 093°20'0 0.0
2018-Feb-18 01:00N 30°09' W 093°20'1 1.5
2018-Feb-18 00:30N 30°09' W 093°20'3 5.6
2018-Feb-18 00:00N 30°06' W 093°20'3 5.7
2018-Feb-17 23:30N 30°03' W 093°20'4 8.6
2018-Feb-17 23:00N 30°07' W 093°20'4 8.0
2018-Feb-17 22:30N 30°11' W 093°18'3 6.2
2018-Feb-17 21:59N 30°13' W 093°15'0 0.6
2018-Feb-17 21:30N 30°13' W 093°16'3 5.7
2018-Feb-17 21:00N 30°11' W 093°18'2 4.1
2018-Feb-17 20:30N 30°10' W 093°20'1 2.7
2018-Feb-17 20:00N 30°11' W 093°19'0 0.0
2018-Feb-17 19:30N 30°11' W 093°19'0 0.0
2018-Feb-17 19:00N 30°11' W 093°19'0 0.0
2018-Feb-17 18:30N 30°11' W 093°19'0 0.0
2018-Feb-17 18:00N 30°11' W 093°19'0 0.0
2018-Feb-17 17:30N 30°11' W 093°19'0 0.0
2018-Feb-17 17:00N 30°11' W 093°19'0 0.0
2018-Feb-17 16:30N 30°11' W 093°19'0 0.0
2018-Feb-17 16:00N 30°11' W 093°19'0 0.0
2018-Feb-17 15:30N 30°11' W 093°19'0 0.0
2018-Feb-17 15:00N 30°11' W 093°19'0 0.0
2018-Feb-17 14:29N 30°11' W 093°19'0 0.0
2018-Feb-17 14:00N 30°11' W 093°19'0 0.0
2018-Feb-17 13:30N 30°11' W 093°19'0 0.0
2018-Feb-17 13:00N 30°11' W 093°19'0 0.0
2018-Feb-17 12:30N 30°11' W 093°19'0 0.0
2018-Feb-17 12:00N 30°11' W 093°19'0 0.0
2018-Feb-17 11:30N 30°11' W 093°19'0 0.0
2018-Feb-17 11:00N 30°11' W 093°19'0 0.0
2018-Feb-17 10:30N 30°11' W 093°19'0 0.0
2018-Feb-17 10:00N 30°11' W 093°19'0 0.0
2018-Feb-17 09:30N 30°11' W 093°19'0 0.0
2018-Feb-17 09:00N 30°11' W 093°19'0 0.0
2018-Feb-17 08:30N 30°11' W 093°19'0 0.0
2018-Feb-17 08:00N 30°11' W 093°19'0 0.0
2018-Feb-17 07:30N 30°11' W 093°19'0 0.0
2018-Feb-17 07:00N 30°11' W 093°19'0 0.0
2018-Feb-17 06:30N 30°11' W 093°19'0 0.0
2018-Feb-17 06:00N 30°11' W 093°19'0 0.0
2018-Feb-17 05:30N 30°11' W 093°19'0 0.0
2018-Feb-17 05:00N 30°11' W 093°19'0 0.0
2018-Feb-17 04:30N 30°11' W 093°19'0 0.0
2018-Feb-17 04:00N 30°11' W 093°19'0 0.0
2018-Feb-17 03:30N 30°11' W 093°19'0 0.0
2018-Feb-17 03:00N 30°11' W 093°19'0 0.0
2018-Feb-17 02:30N 30°11' W 093°19'0 0.0
2018-Feb-17 02:00N 30°11' W 093°19'0 0.0
2018-Feb-17 01:28N 30°11' W 093°19'0 0.0
2018-Feb-17 01:00N 30°11' W 093°19'0 0.0
2018-Feb-17 00:30N 30°11' W 093°19'0 0.0
2018-Feb-17 00:00N 30°11' W 093°19'0 0.0
2018-Feb-16 23:23N 30°11' W 093°19'0 0.0
2018-Feb-16 23:00N 30°11' W 093°19'0 0.0
2018-Feb-16 22:30N 30°11' W 093°19'0 0.0
2018-Feb-16 22:00N 30°11' W 093°19'0 0.0
2018-Feb-16 21:30N 30°11' W 093°19'2 3.9
2018-Feb-16 21:00N 30°09' W 093°20'2 4.2
2018-Feb-16 20:31N 30°11' W 093°19'1 1.9
2018-Feb-16 20:00N 30°11' W 093°18'0 0.0
2018-Feb-16 19:30N 30°11' W 093°18'0 0.2
2018-Feb-16 19:01N 30°12' W 093°18'1 0.9
2018-Feb-16 17:28N 30°11' W 093°19'1 3.3
2018-Feb-16 17:00N 30°09' W 093°20'0 0.2
2018-Feb-16 16:30N 30°09' W 093°20'2 4.1
2018-Feb-16 16:00N 30°11' W 093°18'3 6.6
2018-Feb-16 15:30N 30°13' W 093°15'0 0.0
2018-Feb-16 15:00N 30°13' W 093°15'0 0.0
2018-Feb-16 14:30N 30°13' W 093°15'0 0.0
2018-Feb-16 14:00N 30°13' W 093°15'0 0.0
2018-Feb-16 13:30N 30°13' W 093°15'0 0.0
2018-Feb-16 12:59N 30°13' W 093°15'0 0.0
2018-Feb-16 12:30N 30°13' W 093°15'0 0.0
2018-Feb-16 12:00N 30°13' W 093°15'0 0.0
2018-Feb-16 11:30N 30°13' W 093°15'0 0.0
2018-Feb-16 11:00N 30°13' W 093°15'0 0.0
2018-Feb-16 10:30N 30°13' W 093°15'0 0.0
2018-Feb-16 10:00N 30°13' W 093°15'0 0.0
2018-Feb-16 09:30N 30°13' W 093°15'0 0.0
2018-Feb-16 09:00N 30°13' W 093°15'0 0.0
2018-Feb-16 08:30N 30°13' W 093°15'0 0.0
2018-Feb-16 07:59N 30°13' W 093°15'0 0.0
2018-Feb-16 07:30N 30°13' W 093°15'0 0.0
2018-Feb-16 07:00N 30°13' W 093°15'0 0.0
2018-Feb-16 06:30N 30°13' W 093°15'0 0.0
2018-Feb-16 06:00N 30°13' W 093°15'0 0.0
2018-Feb-16 05:30N 30°13' W 093°15'0 0.0
2018-Feb-16 05:00N 30°13' W 093°15'0 0.0
2018-Feb-16 04:30N 30°13' W 093°15'0 0.0
2018-Feb-16 04:00N 30°13' W 093°15'0 0.0
2018-Feb-16 03:30N 30°13' W 093°15'0 0.0
2018-Feb-16 03:00N 30°13' W 093°15'0 0.0
2018-Feb-16 02:30N 30°13' W 093°15'0 0.0
2018-Feb-16 02:00N 30°13' W 093°15'0 0.0
2018-Feb-16 01:30N 30°13' W 093°15'0 0.0
2018-Feb-16 01:00N 30°13' W 093°15'0 0.0
2018-Feb-16 00:29N 30°13' W 093°15'0 0.0
2018-Feb-15 23:57N 30°13' W 093°15'0 0.0
2018-Feb-15 23:30N 30°13' W 093°15'0 0.0
2018-Feb-15 23:00N 30°13' W 093°15'0 0.0
2018-Feb-15 22:30N 30°13' W 093°15'0 0.0
2018-Feb-15 22:00N 30°13' W 093°15'0 0.0
2018-Feb-15 21:30N 30°13' W 093°15'0 0.0
2018-Feb-15 21:00N 30°13' W 093°15'0 0.0
2018-Feb-15 20:30N 30°13' W 093°15'0 0.0
2018-Feb-15 20:00N 30°13' W 093°15'0 0.0
2018-Feb-15 19:30N 30°13' W 093°15'0 0.0
2018-Feb-15 19:00N 30°13' W 093°15'0 0.0
2018-Feb-15 18:30N 30°13' W 093°15'0 0.0
2018-Feb-15 18:00N 30°13' W 093°15'0 0.0
2018-Feb-15 17:30N 30°13' W 093°15'0 0.0
2018-Feb-15 17:00N 30°13' W 093°15'0 0.0
2018-Feb-15 16:30N 30°13' W 093°15'0 0.0
2018-Feb-15 16:00N 30°13' W 093°15'0 0.0
2018-Feb-15 15:30N 30°13' W 093°15'0 0.0
2018-Feb-15 15:00N 30°13' W 093°15'0 0.0
2018-Feb-15 14:30N 30°13' W 093°15'0 0.0
2018-Feb-15 14:00N 30°13' W 093°15'0 0.0
2018-Feb-15 13:30N 30°13' W 093°15'0 0.0
2018-Feb-15 13:00N 30°13' W 093°15'0 0.0
2018-Feb-15 12:30N 30°13' W 093°15'0 0.0
2018-Feb-15 12:00N 30°13' W 093°15'0 0.0
2018-Feb-15 11:30N 30°13' W 093°15'0 0.0
2018-Feb-15 11:00N 30°13' W 093°15'0 0.0
2018-Feb-15 10:30N 30°13' W 093°15'0 0.0
2018-Feb-15 10:00N 30°13' W 093°15'0 0.0
2018-Feb-15 09:30N 30°13' W 093°15'0 0.0
2018-Feb-15 09:00N 30°13' W 093°15'0 0.0
2018-Feb-15 08:30N 30°13' W 093°15'0 0.0
2018-Feb-15 08:00N 30°13' W 093°15'0 0.0
2018-Feb-15 07:30N 30°13' W 093°15'0 0.0
2018-Feb-15 07:00N 30°13' W 093°15'0 0.0
2018-Feb-15 06:30N 30°13' W 093°15'0 0.0
2018-Feb-15 06:00N 30°13' W 093°15'0 0.0
2018-Feb-15 05:29N 30°13' W 093°15'0 0.0
2018-Feb-15 05:00N 30°13' W 093°15'0 0.0
2018-Feb-15 04:30N 30°13' W 093°15'0 0.0
2018-Feb-15 03:59N 30°13' W 093°15'0 0.0
2018-Feb-15 03:31N 30°13' W 093°15'0 0.0
2018-Feb-15 03:00N 30°13' W 093°15'0 0.0
2018-Feb-15 02:22N 30°13' W 093°15'0 0.0
2018-Feb-15 02:00N 30°13' W 093°15'0 0.0
2018-Feb-15 01:30N 30°13' W 093°15'0 0.0
2018-Feb-15 01:00N 30°13' W 093°15'0 0.0
2018-Feb-15 00:30N 30°13' W 093°15'0 0.0
2018-Feb-15 00:00N 30°13' W 093°15'0 0.0
2018-Feb-14 23:30N 30°13' W 093°15'0 0.0
2018-Feb-14 23:00N 30°13' W 093°15'0 0.0
2018-Feb-14 22:30N 30°13' W 093°15'1 2.3
2018-Feb-14 22:00N 30°14' W 093°15'0 0.0
2018-Feb-14 21:30N 30°14' W 093°15'1 2.8
2018-Feb-14 21:00N 30°12' W 093°16'3 6.4
2018-Feb-14 20:30N 30°11' W 093°19'2 3.0
2018-Feb-14 20:00N 30°09' W 093°20'0 0.0
2018-Feb-14 19:30N 30°09' W 093°20'4 8.7
2018-Feb-14 19:00N 30°12' W 093°16'1 1.7
2018-Feb-14 18:30N 30°13' W 093°15'0 0.0
2018-Feb-14 18:00N 30°13' W 093°15'0 0.0
2018-Feb-14 17:30N 30°13' W 093°15'0 0.0
2018-Feb-14 17:00N 30°13' W 093°15'0 0.0
2018-Feb-14 16:30N 30°13' W 093°15'0 0.0
2018-Feb-14 16:00N 30°13' W 093°15'0 0.0
2018-Feb-14 15:30N 30°13' W 093°15'0 0.0
2018-Feb-14 15:00N 30°13' W 093°15'0 0.0
2018-Feb-14 14:30N 30°13' W 093°15'0 0.0
2018-Feb-14 14:00N 30°13' W 093°15'0 0.0
2018-Feb-14 13:30N 30°13' W 093°15'0 0.0
2018-Feb-14 13:00N 30°13' W 093°15'0 0.0
2018-Feb-14 12:30N 30°13' W 093°15'0 0.0
2018-Feb-14 12:00N 30°13' W 093°15'0 0.0
2018-Feb-14 11:30N 30°13' W 093°15'0 0.0
2018-Feb-14 11:00N 30°13' W 093°15'0 0.0
2018-Feb-14 10:31N 30°13' W 093°15'0 0.0
2018-Feb-14 10:00N 30°13' W 093°15'0 0.0
2018-Feb-14 09:30N 30°13' W 093°15'0 0.0
2018-Feb-14 09:00N 30°13' W 093°15'0 0.0
2018-Feb-14 08:30N 30°13' W 093°15'0 0.0
2018-Feb-14 08:00N 30°13' W 093°15'0 0.0
2018-Feb-14 07:30N 30°13' W 093°15'0 0.0
2018-Feb-14 07:00N 30°13' W 093°15'0 0.0
2018-Feb-14 06:30N 30°13' W 093°15'0 0.0
2018-Feb-14 06:00N 30°13' W 093°15'0 0.0
2018-Feb-14 05:30N 30°13' W 093°15'0 0.0
2018-Feb-14 05:00N 30°13' W 093°15'0 0.0
2018-Feb-14 04:30N 30°13' W 093°15'0 0.0
2018-Feb-14 04:00N 30°13' W 093°15'0 0.0
2018-Feb-14 03:29N 30°13' W 093°15'0 0.0
2018-Feb-14 03:00N 30°13' W 093°15'0 0.0
2018-Feb-14 02:30N 30°13' W 093°15'0 0.0
2018-Feb-14 02:00N 30°13' W 093°15'0 0.0
2018-Feb-14 01:30N 30°13' W 093°15'0 0.0
2018-Feb-14 01:01N 30°13' W 093°15'0 0.0
2018-Feb-14 00:30N 30°13' W 093°15'0 0.0
2018-Feb-14 00:00N 30°13' W 093°15'0 0.0
2018-Feb-13 23:30N 30°13' W 093°15'0 0.0
2018-Feb-13 23:00N 30°13' W 093°15'0 0.0
2018-Feb-13 22:30N 30°13' W 093°15'1 2.8
2018-Feb-13 22:00N 30°12' W 093°17'2 5.0
2018-Feb-13 21:30N 30°11' W 093°19'0 0.0
2018-Feb-13 21:00N 30°11' W 093°19'0 0.0
2018-Feb-13 20:30N 30°11' W 093°19'0 0.0
2018-Feb-13 20:00N 30°11' W 093°19'0 0.0
2018-Feb-13 19:30N 30°11' W 093°19'0 0.0
2018-Feb-13 19:00N 30°11' W 093°19'0 0.0
2018-Feb-13 18:30N 30°11' W 093°19'0 0.0
2018-Feb-13 18:00N 30°11' W 093°19'0 0.0
2018-Feb-13 17:30N 30°11' W 093°19'0 0.0
2018-Feb-13 17:00N 30°11' W 093°19'0 0.0
2018-Feb-13 16:30N 30°11' W 093°19'0 0.0
2018-Feb-13 15:59N 30°11' W 093°19'0 0.0
2018-Feb-13 15:30N 30°11' W 093°19'0 0.0
2018-Feb-13 15:00N 30°11' W 093°19'0 0.0
2018-Feb-13 14:30N 30°11' W 093°19'0 0.0
2018-Feb-13 14:00N 30°11' W 093°19'0 0.0
2018-Feb-13 13:30N 30°11' W 093°19'0 0.0
2018-Feb-13 13:00N 30°11' W 093°19'0 0.0
2018-Feb-13 12:29N 30°11' W 093°19'0 0.0
2018-Feb-13 12:00N 30°11' W 093°19'0 0.0
2018-Feb-13 11:27N 30°11' W 093°19'0 0.0
2018-Feb-13 11:00N 30°11' W 093°19'0 0.0
2018-Feb-13 10:30N 30°11' W 093°19'0 0.0
2018-Feb-13 09:58N 30°11' W 093°19'0 0.0
2018-Feb-13 09:30N 30°11' W 093°19'0 0.0
2018-Feb-13 08:59N 30°11' W 093°19'0 0.0
2018-Feb-13 08:30N 30°11' W 093°19'0 0.0
2018-Feb-13 07:59N 30°11' W 093°19'0 0.0
2018-Feb-13 07:28N 30°11' W 093°19'0 0.0
2018-Feb-13 07:00N 30°11' W 093°19'0 0.0
2018-Feb-13 06:31N 30°11' W 093°19'0 0.0
2018-Feb-13 06:00N 30°11' W 093°19'0 0.0
2018-Feb-13 05:26N 30°11' W 093°19'0 0.0
2018-Feb-13 05:00N 30°11' W 093°19'0 0.0
2018-Feb-13 04:30N 30°11' W 093°19'0 0.0
2018-Feb-13 04:00N 30°11' W 093°19'0 0.0
2018-Feb-13 03:30N 30°11' W 093°19'0 0.0
2018-Feb-13 03:00N 30°11' W 093°19'0 0.0
2018-Feb-13 02:30N 30°11' W 093°19'  

Dump ship's entire track history